Date String (YYYY-MM-DD hh:mm:ss) UTC,Instrument flags,Ambient pressure (hPa),Sample flow (lpm),Bypass flow (lpm),Sample temperature (°C),Ambient temperature (°C),ASC tube jacket temperature (°C),LED temperature (°C),Box temperature (°C),Sample RH (%),Span deviation,Mass concentration (μg/m³),Mass concentration (μg/m³),Mass concentration (μg/m³)
DateTimeUTC,F1_M11,P_M11,Q1_M11,Q2_M11,T1_M11,T2_M11,T3_M11,T4_M11,T5_M11,U1_M11,ZSPAN_M11,X0_M11,X2_M11,X1_M11
2021-11-17 03:00:00,,0819.9,5.01,0.00,29.1,28.2,00.0,38.1,30.7,08.7,0000.0,0007.21,0000.65,0000.38
2021-11-17 03:01:00,,0819.9,5.00,0.00,29.1,28.3,00.0,38.1,30.7,08.7,0000.0,0007.18,0000.63,0000.38
2021-11-17 03:02:00,,0820.0,5.00,0.00,29.1,28.3,00.0,38.1,30.7,08.7,0000.0,0005.58,0000.62,0000.39
2021-11-17 03:03:00,,0819.9,5.00,0.00,29.1,28.3,00.0,38.1,30.7,08.7,0000.0,0003.49,0000.67,0000.39
2021-11-17 03:04:00,,0819.9,5.00,0.00,29.1,28.3,00.0,38.1,30.8,08.7,0000.0,0002.61,0000.69,0000.39
2021-11-17 03:05:00,,0819.9,5.01,0.00,29.1,28.3,00.0,38.1,30.7,08.8,0000.0,0002.62,0000.73,0000.40
2021-11-17 03:06:00,,0819.9,5.00,0.00,29.1,28.3,00.0,38.2,30.8,08.8,0000.0,0002.62,0000.71,0000.40
2021-11-17 03:07:00,,0819.9,5.00,0.00,29.1,28.2,00.0,38.2,30.8,08.8,0000.0,0002.42,0000.70,0000.41
2021-11-17 03:08:00,,0819.9,4.98,0.00,29.1,28.3,00.0,38.2,30.8,08.7,0000.0,0002.41,0000.74,0000.41
2021-11-17 03:09:00,,0819.9,5.00,0.00,29.1,28.3,00.0,38.2,30.8,08.7,0000.0,0001.57,0000.74,0000.41
2021-11-17 03:10:00,,0819.9,5.00,0.00,29.1,28.3,00.0,38.2,30.8,08.8,0000.0,0001.53,0000.75,0000.41
2021-11-17 03:11:00,,0819.9,5.00,0.00,29.1,28.3,00.0,38.2,30.8,08.8,0000.0,0001.64,0000.77,0000.42
2021-11-17 03:12:00,,0819.8,4.98,0.00,29.1,28.3,00.0,38.2,30.8,08.8,0000.0,0001.65,0000.80,0000.43
2021-11-17 03:13:00,,0819.8,5.00,0.00,29.1,28.3,00.0,38.2,30.8,08.8,0000.0,0001.71,0000.81,0000.42
2021-11-17 03:14:00,,0819.9,4.99,0.00,29.1,28.3,00.0,38.2,30.8,08.8,0000.0,0001.67,0000.80,0000.43
2021-11-17 03:15:00,,0819.9,5.00,0.00,29.1,28.2,00.0,38.2,30.8,08.8,0000.0,0001.88,0000.80,0000.42
2021-11-17 03:16:00,,0820.0,5.00,0.00,29.1,28.2,00.0,38.2,30.8,08.8,0000.0,0001.85,0000.78,0000.42
2021-11-17 03:17:00,,0819.9,5.01,0.00,29.1,28.2,00.0,38.2,30.8,08.8,0000.0,0001.80,0000.78,0000.42
2021-11-17 03:18:00,,0819.9,4.99,0.00,29.1,28.2,00.0,38.2,30.7,08.8,0000.0,0001.84,0000.78,0000.41
2021-11-17 03:19:00,,0820.0,5.00,0.00,29.1,28.2,00.0,38.2,30.8,08.9,0000.0,0001.86,0000.76,0000.42
2021-11-17 03:20:00,,0819.9,5.01,0.00,29.1,28.2,00.0,38.2,30.8,08.9,0000.0,0001.85,0000.75,0000.42
2021-11-17 03:21:00,,0819.9,5.01,0.00,29.1,28.2,00.0,38.2,30.7,08.9,0000.0,0001.77,0000.73,0000.42
2021-11-17 03:22:00,,0819.9,5.00,0.00,29.1,28.2,00.0,38.2,30.7,08.9,0000.0,0001.66,0000.74,0000.42
2021-11-17 03:23:00,,0819.9,5.01,0.00,29.1,28.2,00.0,38.2,30.8,08.8,0000.0,0002.26,0000.77,0000.42
2021-11-17 03:24:00,,0819.9,5.00,0.00,29.1,28.2,00.0,38.2,30.7,08.8,0000.0,0002.31,0000.78,0000.43
2021-11-17 03:25:00,,0820.0,4.99,0.00,29.1,28.2,00.0,38.2,30.7,08.8,0000.0,0002.27,0000.78,0000.43
2021-11-17 03:26:00,,0820.0,5.00,0.00,29.1,28.1,00.0,38.2,30.7,08.9,0000.0,0002.30,0000.81,0000.43
2021-11-17 03:27:00,,0820.0,5.00,0.00,29.1,28.1,00.0,38.2,30.7,08.9,0000.0,0002.31,0000.81,0000.44
2021-11-17 03:28:00,,0820.0,5.00,0.00,29.1,28.1,00.0,38.2,30.7,08.9,0000.0,0002.26,0000.79,0000.45
2021-11-17 03:29:00,,0820.0,5.00,0.00,29.1,28.1,00.0,38.2,30.7,08.9,0000.0,0002.35,0000.80,0000.45
2021-11-17 03:30:00,,0820.0,5.00,0.00,29.1,28.1,00.0,38.2,30.7,08.9,0000.0,0002.49,0000.76,0000.44
2021-11-17 03:31:00,,0819.9,5.00,0.00,29.1,28.1,00.0,38.2,30.7,08.9,0000.0,0002.56,0000.77,0000.43
2021-11-17 03:32:00,,0819.9,5.00,0.00,29.1,28.1,00.0,38.1,30.6,08.9,0000.0,0002.71,0000.76,0000.43
2021-11-17 03:33:00,,0819.9,5.00,0.00,29.0,28.1,00.0,38.2,30.6,08.9,0000.0,0002.72,0000.75,0000.43
2021-11-17 03:34:00,,0820.0,5.00,0.00,29.1,28.1,00.0,38.1,30.7,09.0,0000.0,0002.31,0000.71,0000.43
2021-11-17 03:35:00,,0820.0,5.00,0.00,29.1,28.1,00.0,38.1,30.7,08.9,0000.0,0002.10,0000.71,0000.42
2021-11-17 03:36:00,,0820.0,5.00,0.00,29.1,28.1,00.0,38.1,30.7,08.9,0000.0,0002.37,0000.73,0000.42
2021-11-17 03:37:00,,0820.2,5.00,0.00,29.1,28.1,00.0,38.1,30.7,09.0,0000.0,0002.86,0000.73,0000.43
2021-11-17 03:38:00,,0820.2,5.01,0.00,29.1,28.1,00.0,38.1,30.7,08.9,0000.0,0002.90,0000.72,0000.42
2021-11-17 03:39:00,,0820.2,4.99,0.00,29.1,28.2,00.0,38.1,30.7,08.9,0000.0,0003.03,0000.73,0000.41
2021-11-17 03:40:00,,0820.2,5.00,0.00,29.0,28.1,00.0,38.1,30.7,09.0,0000.0,0003.33,0000.76,0000.40
2021-11-17 03:41:00,,0820.2,5.00,0.00,29.1,28.1,00.0,38.1,30.7,09.0,0000.0,0004.12,0000.85,0000.40
2021-11-17 03:42:00,,0820.3,4.99,0.00,29.1,28.1,00.0,38.1,30.7,08.9,0000.0,0004.15,0000.87,0000.40
2021-11-17 03:43:00,,0820.3,5.00,0.00,29.1,28.1,00.0,38.1,30.7,08.9,0000.0,0003.97,0000.86,0000.41
2021-11-17 03:44:00,,0820.3,5.01,0.00,29.1,28.1,00.0,38.1,30.8,08.9,0000.0,0003.96,0000.87,0000.40
2021-11-17 03:45:00,,0820.3,4.99,0.00,29.1,28.1,00.0,38.1,30.8,08.9,0000.0,0004.02,0000.87,0000.40
2021-11-17 03:46:00,,0820.3,5.01,0.00,29.1,28.1,00.0,38.1,30.8,08.9,0000.0,0004.47,0000.88,0000.40
2021-11-17 03:47:00,,0820.3,4.99,0.00,29.1,28.1,00.0,38.1,30.7,08.9,0000.0,0004.14,0000.84,0000.41
2021-11-17 03:48:00,,0820.3,5.00,0.00,29.1,28.1,00.0,38.1,30.7,08.9,0000.0,0003.47,0000.81,0000.40
2021-11-17 03:49:00,,0820.4,4.99,0.00,29.1,28.2,00.0,38.1,30.8,08.9,0000.0,0003.42,0000.80,0000.39
2021-11-17 03:50:00,,0820.4,5.00,0.00,29.1,28.1,00.0,38.1,30.8,08.8,0000.0,0003.38,0000.82,0000.40
2021-11-17 03:51:00,,0820.4,5.00,0.00,29.1,28.2,00.0,38.1,30.8,08.8,0000.0,0002.98,0000.80,0000.41
2021-11-17 03:52:00,,0820.4,5.00,0.00,29.1,28.2,00.0,38.1,30.8,08.8,0000.0,0002.07,0000.73,0000.41
2021-11-17 03:53:00,,0820.4,5.00,0.00,29.1,28.2,00.0,38.1,30.8,08.8,0000.0,0001.98,0000.69,0000.40
2021-11-17 03:54:00,,0820.4,5.02,0.00,29.1,28.2,00.0,38.1,30.8,08.7,0000.0,0002.07,0000.70,0000.40
2021-11-17 03:55:00,,0820.4,5.00,0.00,29.1,28.2,00.0,38.1,30.8,08.8,0000.0,0002.10,0000.72,0000.41
2021-11-17 03:56:00,,0820.5,5.00,0.00,29.1,28.2,00.0,38.1,30.8,08.9,0000.0,0002.23,0000.71,0000.40
2021-11-17 03:57:00,,0820.5,5.01,0.00,29.1,28.2,00.0,38.1,30.8,08.9,0000.0,0002.67,0000.74,0000.40
2021-11-17 03:58:00,,0820.6,5.01,0.00,29.1,28.2,00.0,38.1,30.8,08.9,0000.0,0002.64,0000.72,0000.40
2021-11-17 03:59:00,,0820.6,5.00,0.00,29.1,28.2,00.0,38.1,30.9,08.9,0000.0,0002.58,0000.72,0000.40
